Location: Bacea
(45.9500°N, 22.6667°E)
Time: 11:34:09
(UTC+00:00)

Cosmos 1300 - Pass Details

Date: 06 June 2022
Orbit: 506 x 508 km, 82.5° (Epoch: 04 July)

Event Time Altitude Azimuth Distance (km) Brightness Sun altitude
Rises 21:26:01 0° 357° (N) 2,622 7.8 -19.9°
Reaches altitude 10° 21:28:14 10° 5° (N) 1,732 6.4 -20.0°
Maximum altitude 21:31:50 41° 77° (ENE) 753 3.4 -20.2°
Enters shadow 21:32:18 39° 97° (E) 778 3.4 -20.2°
